Probability
0 0 0 0 0 0 0 0 0 0 0 0 1 4 5 4 2 1 2 6 10 8 5 4 6 7 6 7 7 7 6 7 8 9 8 7 8 7 6 5 4 3 4 4 4 4 6 5 4
0 0 0 0 0 0 0 0 0 0 0 0 1 4 5 5 3 1 2 6 9 7 4 4 6 7 7 7 8 7 7 7 8 9 8 8 9 8 7 5 4 3 4 4 4 4 5 6 5
0 0 0 0 0 0 0 0 0 0 0 0 1 3 5 4 3 3 5 8 7 5 4 5 8 9 8 9 9 8 8 7 8 9 10 9 9 9 8 6 4 3 4 4 4 4 5 6 6
0 0 0 0 0 0 0 0 0 0 0 1 2 4 5 5 5 7 10 10 7 5 6 10 12 12 11 10 10 9 9 9 9 10 10 9 8 9 9 7 4 4 4 4 4 4 5 5 5
0 0 0 0 0 0 0 0 0 1 1 2 4 6 6 6 9 12 12 12 11 9 10 15 17 15 14 12 10 9 9 10 10 10 10 9 9 9 8 7 5 5 5 5 4 4 4 4 3
0 0 0 0 0 0 0 0 0 1 1 3 5 6 6 7 11 13 13 15 17 15 16 19 19 17 16 15 13 10 9 9 9 9 9 7 7 8 8 7 6 6 6 6 6 5 4 3 2
0 0 0 0 0 0 0 0 0 1 2 4 6 7 6 8 13 17 19 21 22 21 21 22 20 18 17 18 16 13 10 8 6 7 7 6 5 6 7 8 7 7 6 6 6 6 5 3 2
0 0 0 0 0 0 0 0 1 2 4 6 7 8 9 12 19 23 25 26 25 22 22 22 20 17 16 17 17 15 11 7 5 5 6 6 5 6 7 8 8 8 7 6 6 6 6 4 4
0 0 0 0 0 0 0 1 2 4 6 8 8 8 11 18 24 26 26 27 26 23 21 20 18 15 14 14 15 13 10 8 6 5 5 5 6 7 7 6 6 6 6 6 5 4 4 4 4
0 0 0 0 0 0 0 1 3 4 6 8 8 9 12 19 24 24 23 24 24 21 18 16 14 13 12 11 11 10 10 9 7 5 4 5 6 7 6 4 3 4 5 5 4 3 2 3 3
0 0 0 0 0 0 0 2 4 4 4 6 8 8 12 18 21 21 21 21 20 18 18 16 13 11 10 10 9 9 9 9 7 6 5 5 6 6 4 3 3 3 4 4 3 3 3 3 3
0 0 0 0 0 0 0 2 3 2 2 5 7 8 10 15 18 18 17 17 17 17 18 18 14 11 10 9 8 8 9 9 7 6 6 6 6 4 3 3 3 3 3 3 3 3 3 3 3
0 0 0 0 0 0 0 1 2 2 4 6 8 8 10 12 14 14 12 14 18 19 19 17 14 12 11 10 8 8 9 9 9 8 7 6 5 4 4 3 3 3 3 3 3 3 3 3 3
0 0 0 0 0 0 1 1 2 3 5 7 9 10 12 12 11 10 10 14 20 23 21 18 16 16 15 12 9 8 8 9 10 9 7 6 5 4 4 4 3 3 3 3 3 3 3 3 3
0 0 0 0 0 0 1 2 3 4 5 6 8 10 13 12 10 10 10 14 22 26 24 22 21 21 18 13 11 9 8 9 11 11 8 6 5 4 4 3 3 2 3 3 3 3 3 3 3
0 0 0 0 0 0 2 3 5 6 6 6 7 8 10 11 9 10 12 16 23 26 26 25 25 23 17 12 11 10 9 8 10 10 8 6 5 4 3 3 1 1 1 2 2 3 3 3 3
0 0 0 0 0 0 1 3 6 7 6 5 5 6 7 8 9 10 13 18 22 25 25 25 23 18 13 10 9 9 8 7 8 7 7 6 6 5 4 3 1 0 0 1 1 1 2 3 3
0 0 0 0 0 0 1 3 5 6 6 4 3 5 7 8 11 14 17 20 23 25 26 23 18 13 11 10 9 8 7 7 7 7 6 7 7 6 5 3 1 1 1 0 0 0 1 2 1
0 0 0 0 0 0 1 3 5 6 5 3 3 5 9 13 16 18 21 24 27 29 30 25 19 14 12 12 11 9 9 9 9 8 7 7 7 7 7 5 3 3 3 1 0 0 0 0 0
0 0 0 0 0 0 1 2 5 7 6 5 7 9 13 17 20 21 24 28 30 32 32 28 22 17 15 14 13 12 11 10 9 8 7 7 6 7 7 6 6 6 5 3 1 0 0 1 1
0 0 0 0 0 0 1 2 3 6 7 7 9 12 16 20 22 23 25 29 32 32 31 29 24 18 17 17 17 15 13 10 8 7 7 6 6 6 6 6 6 6 6 5 2 1 1 3 4
0 0 0 0 0 0 1 1 2 4 8 9 11 13 18 22 24 25 27 31 33 32 30 29 25 21 19 19 19 17 14 12 10 9 8 7 7 6 6 6 6 6 6 6 4 3 4 5 6
0 0 0 0 0 0 0 0 1 4 8 11 13 15 19 22 25 26 28 32 34 32 30 29 27 24 22 22 20 17 15 13 12 11 10 8 8 7 7 7 7 6 6 6 6 6 6 6 6
0 0 0 0 0 0 0 0 1 4 8 12 15 17 19 21 24 26 27 31 34 33 30 28 26 25 24 24 21 18 16 14 14 12 11 9 9 9 9 8 7 6 6 6 6 6 6 6 6
0 0 0 0 0 0 0 1 3 5 8 12 16 19 21 23 25 26 27 31 35 35 32 28 24 23 24 24 22 19 17 16 15 13 11 11 10 10 10 9 8 7 7 7 6 6 6 5 5
0 0 0 0 0 0 1 3 6 7 9 12 16 21 23 24 26 26 27 32 36 37 35 29 23 21 22 23 22 20 19 18 16 14 12 12 11 10 10 10 9 9 8 7 6 5 5 5 4
0 0 0 0 0 0 1 5 8 9 11 13 16 19 22 23 25 26 27 32 37 38 35 30 24 21 20 20 19 17 16 16 15 12 12 12 11 10 10 11 11 10 10 9 7 6 6 7 6
0 0 0 0 0 0 1 4 7 9 11 13 14 16 18 21 23 24 26 29 34 36 35 31 26 22 19 17 15 13 12 12 10 9 9 9 10 10 11 12 12 11 11 12 10 9 10 9 9
0 0 0 0 0 0 1 3 6 8 10 11 11 11 14 18 21 22 24 26 28 31 33 32 28 22 17 14 12 10 8 7 7 8 9 9 10 11 12 12 12 12 12 12 12 11 11 10 9
0 0 0 0 0 0 1 3 5 7 9 9 9 9 12 17 20 22 23 24 25 28 31 32 29 22 15 12 11 8 5 5 6 9 10 11 11 12 12 11 12 11 11 11 11 11 11 10 8
Wind_Speed
3 3 2 2 4 4 2 3 2 2 3 4 7 10 9 6 5 5 3 13 14 12 9 12 14 13 13 13 13 12 12 12 12 12 11 11 11 11 11 11 11 11 11 11 10 10 10 10 9
2 2 2 4 5 2 3 3 2 2 4 6 8 10 8 7 7 9 7 12 15 13 9 10 14 14 14 13 13 12 12 12 12 11 11 11 10 10 11 11 11 11 10 10 10 10 9 9 8
3 2 2 3 2 4 3 3 4 3 4 5 5 5 5 7 8 8 10 16 13 10 8 11 15 14 14 13 13 12 12 11 11 11 11 11 10 10 10 10 10 10 10 10 9 9 8 7 6
1 3 3 3 3 5 5 5 3 4 3 5 6 6 4 4 7 11 17 17 14 10 9 11 15 14 14 13 13 12 12 11 11 10 10 10 10 10 10 10 10 10 10 9 9 8 7 6 5
3 4 3 2 4 4 4 5 4 6 3 4 7 6 4 3 13 19 18 17 15 11 8 10 15 14 14 13 13 12 12 11 10 10 10 10 10 9 10 10 9 9 9 9 8 8 6 5 5
3 4 3 2 5 5 4 2 1 5 6 6 8 7 3 6 14 16 16 15 14 13 10 10 15 14 14 13 13 12 11 10 10 9 10 10 9 9 9 9 9 8 8 8 7 6 5 4 4
3 2 2 3 3 5 3 1 4 4 4 4 7 7 4 5 10 14 14 13 12 11 9 7 8 10 13 13 12 11 11 10 9 9 9 9 9 9 9 9 8 7 7 6 6 5 5 4 4
4 2 2 2 2 4 3 1 3 5 3 4 5 8 7 7 10 12 12 11 10 9 8 7 7 6 6 8 12 11 11 10 9 8 9 9 9 8 8 7 7 7 7 6 5 5 4 3 3
3 3 3 4 3 4 3 2 2 4 6 3 3 6 10 14 15 13 11 9 8 9 6 6 7 6 6 6 9 9 9 9 8 7 8 7 3 4 4 6 6 7 6 5 4 3 3 2 3
4 3 8 7 5 4 3 1 3 4 5 4 6 8 13 15 14 14 12 11 10 9 8 7 7 7 6 6 5 3 4 4 4 3 3 2 2 2 4 5 5 5 5 4 3 3 2 2 1
4 7 7 7 8 5 4 2 1 6 3 7 11 12 13 14 13 12 11 11 11 10 9 8 7 7 7 4 4 2 2 2 3 3 3 3 2 1 1 1 1 1 2 1 1 1 1 1 1
3 6 7 7 7 4 4 2 0 3 6 10 14 15 13 13 12 12 11 10 9 9 9 8 8 7 6 5 4 4 3 3 2 3 4 3 2 2 2 1 1 1 0 1 0 1 1 1 1
5 7 8 8 6 5 3 2 1 2 7 10 12 13 12 12 11 9 10 9 9 8 8 8 8 8 7 5 4 5 3 4 3 3 3 4 3 3 2 1 1 1 1 1 1 1 1 1 1
6 6 8 7 6 5 2 2 2 4 9 11 11 11 10 10 11 9 9 9 9 9 8 7 8 8 7 6 5 4 4 4 3 3 3 4 3 3 2 2 1 1 1 1 1 1 1 0 1
4 5 8 6 4 3 2 3 3 7 9 10 10 10 10 9 9 10 10 10 10 10 8 8 8 8 7 6 5 5 4 4 4 3 4 4 3 3 3 2 1 1 1 1 1 1 1 1 1
4 3 4 7 2 3 5 6 7 7 9 8 9 9 9 8 9 8 9 9 9 9 8 8 8 7 7 5 4 4 4 4 4 3 3 4 4 4 3 2 1 1 1 1 1 1 1 1 1
3 2 5 7 3 3 4 6 7 7 9 9 9 8 9 8 7 7 8 8 9 10 9 8 7 6 6 5 4 4 3 4 3 3 3 3 4 4 3 2 1 2 2 1 1 1 1 1 0
5 4 4 5 4 1 3 6 7 7 9 9 8 8 9 9 8 8 8 8 9 9 8 8 7 6 5 4 3 3 3 2 2 2 2 3 3 3 3 2 2 2 2 1 1 1 1 1 1
5 5 7 9 6 2 4 6 7 6 6 8 7 7 8 9 7 7 8 9 9 8 8 7 7 5 4 4 4 4 3 2 2 2 3 3 3 3 3 2 2 2 2 1 1 1 1 0 1
7 8 8 8 6 2 3 5 6 6 7 9 10 9 9 8 7 7 8 8 9 9 9 8 8 7 5 4 4 3 3 2 2 2 2 3 3 3 4 3 2 2 2 2 1 1 1 0 1
8 8 8 8 6 3 0 4 3 3 3 4 6 8 9 11 11 10 9 8 9 9 10 9 8 7 5 4 3 3 2 2 1 1 1 2 3 3 3 4 3 2 2 2 1 1 2 1 1
8 8 8 7 3 4 2 3 6 4 3 5 6 6 7 9 10 10 10 10 10 10 9 9 9 8 6 6 5 5 4 3 3 3 2 2 3 3 3 3 3 3 2 2 2 2 2 2 1
9 7 5 5 3 3 2 2 6 3 4 6 7 8 7 9 10 11 11 11 10 9 9 9 8 7 7 7 7 6 4 3 2 2 3 2 2 3 3 3 3 3 2 2 2 1 1 1 2
5 1 3 2 3 3 5 4 6 4 8 7 7 7 8 9 9 9 9 9 8 8 8 8 8 7 7 7 6 7 6 5 4 4 4 2 1 1 2 3 3 3 2 2 2 2 1 1 2
1 4 3 4 2 6 3 3 6 6 7 8 9 8 8 8 8 8 9 9 9 9 8 8 8 6 7 7 6 7 7 6 6 5 5 4 2 2 3 2 2 3 3 2 2 2 1 2 1
4 8 7 5 5 5 2 3 5 4 2 3 6 7 7 7 7 7 8 9 9 9 9 8 8 7 6 7 6 5 6 4 4 5 4 5 4 3 3 3 3 3 3 3 2 1 2 1 1
3 4 7 6 2 2 3 3 3 3 3 3 3 5 5 7 8 7 7 8 8 9 9 9 9 7 6 6 5 5 5 5 5 4 4 3 3 3 3 3 3 3 3 3 2 1 2 1 1
6 5 5 4 3 4 3 3 3 2 1 1 3 4 3 5 6 6 6 7 7 7 7 7 8 7 6 6 6 5 4 4 4 4 4 4 3 3 3 3 3 3 3 3 3 2 1 1 1
1 2 4 3 5 5 3 5 4 5 5 5 4 4 5 4 4 5 5 6 6 5 6 6 6 6 5 6 5 5 4 4 4 4 5 4 3 4 4 4 3 3 3 3 3 2 2 2 1
4 4 6 4 3 4 3 7 3 3 3 4 3 3 4 5 4 4 4 4 4 5 5 6 6 6 5 5 5 5 4 4 4 4 4 4 4 4 4 4 4 4 3 3 3 3 2 2 2
Wind_Direction
206 192 138 68 50 46 305 262 187 43 24 49 80 91 95 86 117 143 151 141 139 143 146 140 133 128 123 119 115 113 113 112 111 112 111 112 113 114 117 119 119 122 124 122 120 119 117 114 112
202 187 79 58 76 52 291 243 145 140 142 106 85 90 85 77 96 117 125 142 141 143 143 141 137 131 127 123 121 119 117 115 114 114 116 117 118 118 120 121 120 120 124 125 125 122 121 118 117
240 191 90 73 115 179 227 220 153 129 132 104 92 73 86 115 121 135 146 143 138 139 142 144 139 135 131 128 127 126 124 121 118 117 118 120 121 121 121 122 122 123 125 126 127 125 127 124 124
72 51 47 66 250 230 207 232 165 121 78 71 94 71 64 112 132 136 140 142 139 141 144 145 140 138 136 133 131 129 128 126 124 121 121 123 124 125 125 125 125 126 129 130 130 130 132 134 134
71 72 42 338 264 263 248 226 192 137 122 107 104 98 67 56 115 132 141 143 143 145 147 147 143 141 141 139 135 131 128 127 128 128 127 128 128 131 131 130 130 132 135 138 139 140 142 142 139
49 68 67 281 270 275 263 230 118 104 123 120 111 111 105 121 128 141 143 146 145 146 146 147 147 144 144 142 139 136 133 129 129 134 133 133 133 136 137 138 138 140 141 144 146 147 152 154 150
117 98 214 246 280 293 269 175 127 132 128 140 129 109 125 140 139 140 139 138 138 141 143 146 149 148 148 146 142 140 138 136 135 139 140 138 137 139 143 147 147 149 150 156 160 161 165 166 161
151 103 297 287 294 286 294 14 135 130 118 117 119 129 157 167 133 126 124 127 133 138 144 148 148 147 147 148 148 147 146 145 145 145 144 144 144 144 149 152 157 160 164 170 172 176 181 185 185
124 91 251 248 241 261 295 51 78 88 93 84 98 131 150 140 128 122 122 123 135 140 146 151 153 150 149 151 155 154 154 154 154 154 150 147 139 141 150 152 157 166 170 173 174 185 205 216 213
126 173 230 234 236 257 280 154 167 108 101 81 80 99 126 131 134 136 143 149 152 155 159 161 161 160 156 158 149 150 155 155 154 146 146 136 134 148 149 156 158 160 166 174 185 203 236 240 207
182 208 235 259 265 262 269 251 190 127 140 156 143 142 141 138 141 143 150 157 161 160 160 162 162 161 161 154 148 152 150 148 152 153 151 144 136 142 146 125 151 151 156 176 215 260 289 256 179
242 251 246 252 261 258 245 241 138 151 176 162 150 148 147 147 151 153 154 157 152 152 161 159 159 160 163 151 155 157 157 157 163 165 158 147 143 149 154 151 162 152 145 180 239 259 263 254 179
256 261 263 257 264 253 251 245 142 155 148 141 139 143 150 153 155 157 154 152 146 150 157 161 159 158 159 153 160 159 165 164 163 154 157 153 150 159 160 166 174 182 178 187 201 218 203 215 187
246 258 268 268 262 250 203 253 118 184 146 141 144 151 156 157 159 156 154 155 154 156 161 167 161 159 155 158 159 160 163 161 156 152 158 157 152 152 152 155 160 171 187 190 179 173 164 174 131
278 301 301 275 243 242 92 316 210 179 151 150 154 159 158 160 160 164 166 162 160 159 161 166 162 159 158 161 164 155 161 157 157 159 158 154 153 158 148 147 160 175 167 144 126 104 82 74 90
346 337 300 286 237 232 133 242 243 181 154 159 162 164 159 165 168 172 167 160 154 148 151 158 157 156 155 155 154 148 152 151 155 156 154 157 161 157 143 148 159 157 131 112 116 96 78 46 63
349 268 267 288 266 204 156 215 227 193 163 165 166 160 155 156 162 170 164 159 154 150 152 152 145 153 156 150 142 142 139 145 151 150 151 160 161 155 140 141 143 130 115 109 126 104 126 119 103
240 250 266 267 277 204 191 220 215 194 172 174 172 164 156 159 170 167 161 157 151 148 149 148 143 151 148 139 127 128 132 145 147 152 156 151 148 146 139 130 125 121 107 91 82 97 94 129 165
233 264 271 272 277 246 229 228 218 202 178 181 183 171 162 166 165 158 156 153 143 141 145 152 148 155 147 145 149 152 157 166 164 167 159 152 151 151 146 140 133 126 123 135 125 111 83 37 90
242 262 272 285 281 247 242 246 219 198 189 185 182 178 171 160 156 157 156 154 152 155 155 156 159 163 163 165 165 161 153 160 166 164 161 158 156 160 159 153 152 152 135 108 106 101 102 1 107
249 237 247 256 290 303 290 308 272 236 199 185 179 177 176 169 166 167 162 160 158 161 167 166 169 168 172 163 137 119 104 95 107 158 179 184 166 164 156 159 158 160 150 152 164 145 141 168 322
250 243 239 245 260 274 176 246 267 234 212 197 197 186 184 177 168 166 167 166 170 174 170 167 168 167 175 165 156 156 158 170 188 186 186 190 178 172 168 165 161 163 158 159 182 162 165 159 230
237 244 242 245 234 277 298 184 268 231 212 215 204 195 190 183 174 171 173 174 174 170 168 167 165 171 177 172 171 167 172 184 177 167 167 179 181 177 172 168 166 169 168 171 174 160 159 174 189
226 298 334 16 82 262 241 181 260 225 210 212 205 191 186 181 174 173 169 167 168 165 163 163 167 177 176 171 170 172 176 175 164 173 179 185 187 187 178 173 177 179 172 175 182 175 178 204 200
123 95 24 349 352 249 238 179 243 247 216 195 193 187 174 169 163 161 161 165 167 165 168 168 168 180 178 174 178 182 183 180 180 183 186 182 181 191 204 187 182 181 181 176 174 174 199 218 209
202 148 160 198 226 266 307 207 251 266 208 174 169 166 162 159 159 158 159 159 162 165 167 167 170 179 181 180 183 183 181 178 180 181 179 184 190 197 194 184 181 182 178 175 173 178 210 212 213
181 189 175 155 218 250 265 266 300 355 48 67 110 143 162 161 156 155 156 156 159 165 171 172 170 172 178 180 175 174 178 174 175 175 174 182 189 190 185 182 177 179 176 174 168 182 212 209 218
167 160 100 124 175 241 258 239 224 222 208 80 94 134 151 149 151 152 154 155 164 172 172 169 168 172 176 177 177 175 177 174 167 162 172 182 185 183 175 185 185 185 183 178 169 182 201 195 234
167 133 129 142 166 171 231 258 218 199 186 171 170 149 146 145 146 157 159 162 161 157 159 165 165 162 170 176 174 170 171 170 167 170 182 185 183 183 180 181 182 186 188 184 171 193 191 193 230
172 174 145 157 225 175 185 256 269 187 164 151 143 130 136 147 151 148 155 151 148 153 158 161 159 163 176 173 163 164 163 164 175 183 189 186 188 190 186 177 175 185 186 181 184 199 197 184 197